Time,TemperatureF,DewpointF,PressureIn,WindDirection,WindDirectionDegrees,WindSpeedMPH,WindSpeedGustMPH,Humidity,HourlyPrecipIn,Conditions,Clouds,dailyrainin,SoftwareType,DateUTC
2013-01-06 00:00:00,32.2,29.3,29.29,SSW,211,5.0,6.0,89,0.00,,,0.00,Weather View 32 v70,2013-01-06 05:00:00,
2013-01-06 00:20:00,32.4,29.2,29.29,South,174,6.0,7.0,88,0.00,,,0.00,Weather View 32 v70,2013-01-06 05:20:00,
2013-01-06 00:40:00,32.7,29.0,29.29,SSW,211,4.0,8.0,86,0.00,,,0.00,Weather View 32 v70,2013-01-06 05:40:00,
2013-01-06 01:00:00,33.1,28.2,29.29,SSW,199,6.0,9.0,82,0.00,,,0.00,Weather View 32 v70,2013-01-06 06:00:00,
2013-01-06 01:20:00,33.1,27.3,29.29,South,184,5.0,9.0,79,0.00,,,0.00,Weather View 32 v70,2013-01-06 06:20:00,
2013-01-06 01:40:00,33.1,26.7,29.26,SSW,193,5.0,11.0,77,0.00,,,0.00,Weather View 32 v70,2013-01-06 06:40:00,
2013-01-06 02:00:00,33.3,26.2,29.26,SW,224,6.0,11.0,75,0.00,,,0.00,Weather View 32 v70,2013-01-06 07:00:00,
2013-01-06 02:20:00,33.4,25.4,29.26,SSW,198,5.0,11.0,72,0.00,,,0.00,Weather View 32 v70,2013-01-06 07:20:00,
2013-01-06 02:40:00,33.3,24.9,29.26,South,191,6.0,9.0,71,0.00,,,0.00,Weather View 32 v70,2013-01-06 07:40:00,
2013-01-06 03:00:00,33.3,24.9,29.26,South,183,6.0,9.0,71,0.00,,,0.00,Weather View 32 v70,2013-01-06 08:00:00,
2013-01-06 03:20:00,33.4,25.0,29.26,SW,214,8.0,11.0,71,0.00,,,0.00,Weather View 32 v70,2013-01-06 08:20:00,
2013-01-06 03:40:00,33.4,25.0,29.26,South,170,5.0,11.0,71,0.00,,,0.00,Weather View 32 v70,2013-01-06 08:40:00,
2013-01-06 04:00:00,33.4,25.4,29.26,SSW,195,5.0,11.0,72,0.00,,,0.00,Weather View 32 v70,2013-01-06 09:00:00,
2013-01-06 04:20:00,33.4,25.7,29.23,SSW,199,5.0,9.0,73,0.00,,,0.00,Weather View 32 v70,2013-01-06 09:20:00,
2013-01-06 04:40:00,33.4,26.4,29.23,SSW,196,3.0,9.0,75,0.00,,,0.00,Weather View 32 v70,2013-01-06 09:40:00,
2013-01-06 05:00:00,33.4,26.4,29.23,WSW,238,8.0,9.0,75,0.00,,,0.00,Weather View 32 v70,2013-01-06 10:00:00,
2013-01-06 05:20:00,33.4,26.4,29.23,SSW,213,8.0,9.0,75,0.00,,,0.00,Weather View 32 v70,2013-01-06 10:20:00,
2013-01-06 05:40:00,33.6,26.9,29.23,South,189,4.0,9.0,76,0.00,,,0.00,Weather View 32 v70,2013-01-06 10:40:00,
2013-01-06 06:00:00,33.6,26.9,29.23,South,189,6.0,9.0,76,0.00,,,0.00,Weather View 32 v70,2013-01-06 11:00:00,
2013-01-06 06:20:00,33.6,26.9,29.23,SSW,200,5.0,9.0,76,0.00,,,0.00,Weather View 32 v70,2013-01-06 11:20:00,
2013-01-06 06:40:00,33.6,26.5,29.23,South,189,5.0,9.0,75,0.00,,,0.00,Weather View 32 v70,2013-01-06 11:40:00,
2013-01-06 07:00:00,33.6,26.2,29.21,SSW,194,6.0,8.0,74,0.00,,,0.00,Weather View 32 v70,2013-01-06 12:00:00,
2013-01-06 07:20:00,33.6,26.2,29.21,South,186,6.0,8.0,74,0.00,,,0.00,Weather View 32 v70,2013-01-06 12:20:00,
2013-01-06 07:40:00,33.6,25.9,29.21,SSW,207,6.0,8.0,73,0.00,,,0.00,Weather View 32 v70,2013-01-06 12:40:00,
2013-01-06 08:00:00,33.6,25.9,29.21,SSW,206,5.0,8.0,73,0.00,,,0.00,Weather View 32 v70,2013-01-06 13:00:00,
2013-01-06 08:20:00,33.6,26.5,29.21,SW,221,3.0,8.0,75,0.00,,,0.00,Weather View 32 v70,2013-01-06 13:20:00,
2013-01-06 08:40:00,33.6,26.9,29.21,South,191,4.0,8.0,76,0.00,,,0.00,Weather View 32 v70,2013-01-06 13:40:00,
2013-01-06 09:00:00,33.6,27.5,29.21,SSW,197,4.0,8.0,78,0.00,,,0.00,Weather View 32 v70,2013-01-06 14:00:00,
2013-01-06 09:20:00,34.2,26.4,29.21,South,187,5.0,8.0,73,0.00,,,0.00,Weather View 32 v70,2013-01-06 14:20:00,
2013-01-06 09:40:00,34.3,26.2,29.21,SSW,194,6.0,8.0,72,0.00,,,0.00,Weather View 32 v70,2013-01-06 14:40:00,
2013-01-06 10:00:00,34.3,26.2,29.21,SSW,212,4.0,8.0,72,0.00,,,0.00,Weather View 32 v70,2013-01-06 15:00:00,
2013-01-06 10:20:00,34.3,27.2,29.21,SSW,205,4.0,8.0,75,0.00,,,0.00,Weather View 32 v70,2013-01-06 15:20:00,
2013-01-06 10:40:00,34.2,27.7,29.21,South,187,4.0,8.0,77,0.00,,,0.00,Weather View 32 v70,2013-01-06 15:40:00,
2013-01-06 11:00:00,34.5,27.4,29.21,SSW,211,4.0,8.0,75,0.00,,,0.00,Weather View 32 v70,2013-01-06 16:00:00,
2013-01-06 11:20:00,34.5,28.0,29.21,SSW,206,3.0,9.0,77,0.00,,,0.00,Weather View 32 v70,2013-01-06 16:20:00,
2013-01-06 11:40:00,34.3,27.9,29.21,WSW,239,5.0,9.0,77,0.00,,,0.00,Weather View 32 v70,2013-01-06 16:40:00,
2013-01-06 12:00:00,34.3,28.2,29.21,SSW,205,6.0,9.0,78,0.00,,,0.00,Weather View 32 v70,2013-01-06 17:00:00,
2013-01-06 12:20:00,34.2,28.0,29.21,West,272,3.0,6.0,78,0.00,,,0.00,Weather View 32 v70,2013-01-06 17:20:00,
2013-01-06 12:40:00,34.2,28.6,29.21,SSW,205,3.0,6.0,80,0.00,,,0.00,Weather View 32 v70,2013-01-06 17:40:00,
2013-01-06 13:00:00,34.2,29.5,29.21,North,5,5.0,6.0,83,0.00,,,0.00,Weather View 32 v70,2013-01-06 18:00:00,
2013-01-06 13:20:00,33.6,28.1,29.23,North,349,3.0,10.0,80,0.00,,,0.00,Weather View 32 v70,2013-01-06 18:20:00,
2013-01-06 13:40:00,33.4,26.4,29.23,NNW,330,3.0,10.0,75,0.00,,,0.00,Weather View 32 v70,2013-01-06 18:40:00,
2013-01-06 14:00:00,33.6,26.2,29.23,NNW,335,7.0,10.0,74,0.00,,,0.00,Weather View 32 v70,2013-01-06 19:00:00,
2013-01-06 14:20:00,33.4,25.4,29.23,NNW,344,5.0,8.0,72,0.00,,,0.00,Weather View 32 v70,2013-01-06 19:20:00,
2013-01-06 14:40:00,33.1,24.4,29.26,NW,312,6.0,8.0,70,0.00,,,0.00,Weather View 32 v70,2013-01-06 19:40:00,
2013-01-06 15:20:00,34.0,19.5,29.29,NNW,343,4.0,11.0,55,0.00,,,0.00,Weather View 32 v70,2013-01-06 20:20:00,
2013-01-06 15:21:00,34.0,19.5,29.29,NNW,343,4.0,11.0,55,0.00,,,0.00,Weather View 32 v70,2013-01-06 20:21:00,
2013-01-06 15:40:00,33.1,18.2,29.29,WSW,245,0.0,11.0,54,0.00,,,0.00,Weather View 32 v70,2013-01-06 20:40:00,
2013-01-06 16:00:00,32.5,18.6,29.29,NNW,339,0.0,9.0,56,0.00,,,0.00,Weather View 32 v70,2013-01-06 21:00:00,
2013-01-06 16:20:00,32.4,19.2,29.32,WNW,302,0.0,8.0,58,0.00,,,0.00,Weather View 32 v70,2013-01-06 21:20:00,
2013-01-06 16:40:00,32.2,19.8,29.32,NNE,21,0.0,6.0,60,0.00,,,0.00,Weather View 32 v70,2013-01-06 21:40:00,
2013-01-06 17:00:00,32.0,20.1,29.35,NNW,343,0.0,0.0,61,0.00,,,0.00,Weather View 32 v70,2013-01-06 22:00:00,
2013-01-06 17:20:00,31.8,20.3,29.35,NW,326,0.0,0.0,62,0.00,,,0.00,Weather View 32 v70,2013-01-06 22:20:00,
2013-01-06 17:40:00,31.8,19.9,29.35,WNW,297,0.0,0.0,61,0.00,,,0.00,Weather View 32 v70,2013-01-06 22:40:00,
2013-01-06 18:00:00,31.6,20.5,29.38,NNW,348,0.0,0.0,63,0.00,,,0.00,Weather View 32 v70,2013-01-06 23:00:00,
2013-01-06 18:20:00,31.6,19.7,29.38,North,349,0.0,0.0,61,0.00,,,0.00,Weather View 32 v70,2013-01-06 23:20:00,
2013-01-06 18:39:00,31.6,19.7,29.41,NW,324,0.0,0.0,61,0.00,,,0.00,Weather View 32 v70,2013-01-06 23:39:00,
2013-01-06 19:00:00,31.6,19.7,29.44,NNW,332,0.0,0.0,61,0.00,,,0.00,Weather View 32 v70,2013-01-07 00:00:00,
2013-01-06 19:20:00,31.5,19.9,29.44,NW,321,0.0,0.0,62,0.00,,,0.00,Weather View 32 v70,2013-01-07 00:20:00,
2013-01-06 19:24:00,31.5,19.9,29.44,NW,321,0.0,0.0,62,0.00,,,0.00,Weather View 32 v70,2013-01-07 00:24:00,
2013-01-06 19:40:00,31.5,19.2,29.44,North,353,0.0,0.0,60,0.00,,,0.00,Weather View 32 v70,2013-01-07 00:40:00,
2013-01-06 20:00:00,31.5,18.8,29.47,NNW,329,0.0,0.0,59,0.00,,,0.00,Weather View 32 v70,2013-01-07 01:00:00,
2013-01-06 20:20:00,31.5,18.8,29.47,NNW,333,0.0,0.0,59,0.00,,,0.00,Weather View 32 v70,2013-01-07 01:20:00,
2013-01-06 20:25:00,31.5,18.8,29.47,NNW,333,0.0,0.0,59,0.00,,,0.00,Weather View 32 v70,2013-01-07 01:25:00,
2013-01-06 20:40:00,31.3,18.6,29.47,NE,46,0.0,0.0,59,0.00,,,0.00,Weather View 32 v70,2013-01-07 01:40:00,
2013-01-06 21:00:00,31.3,18.6,29.50,NW,319,0.0,0.0,59,0.00,,,0.00,Weather View 32 v70,2013-01-07 02:00:00,
2013-01-06 21:20:00,31.3,18.6,29.50,NNW,338,0.0,0.0,59,0.00,,,0.00,Weather View 32 v70,2013-01-07 02:20:00,
2013-01-06 21:25:00,31.3,18.6,29.50,NNW,338,0.0,0.0,59,0.00,,,0.00,Weather View 32 v70,2013-01-07 02:25:00,
2013-01-06 21:40:00,31.1,18.8,29.50,NNW,338,0.0,0.0,60,0.00,,,0.00,Weather View 32 v70,2013-01-07 02:40:00,
2013-01-06 22:00:00,31.1,18.4,29.50,NNW,345,0.0,0.0,59,0.00,,,0.00,Weather View 32 v70,2013-01-07 03:00:00,
2013-01-06 22:20:00,30.9,18.3,29.53,South,177,0.0,0.0,59,0.00,,,0.00,Weather View 32 v70,2013-01-07 03:20:00,
2013-01-06 22:26:00,30.9,18.3,29.53,South,177,0.0,0.0,59,0.00,,,0.00,Weather View 32 v70,2013-01-07 03:26:00,
2013-01-06 22:40:00,30.7,18.5,29.53,NNW,327,0.0,0.0,60,0.00,,,0.00,Weather View 32 v70,2013-01-07 03:40:00,
2013-01-06 23:00:00,30.6,17.5,29.53,NNW,328,0.0,0.0,58,0.00,,,0.00,Weather View 32 v70,2013-01-07 04:00:00,
2013-01-06 23:20:00,30.4,16.1,29.56,NNW,348,0.0,0.0,55,0.00,,,0.00,Weather View 32 v70,2013-01-07 04:20:00,
2013-01-06 23:27:00,30.4,16.1,29.56,NNW,348,0.0,0.0,55,0.00,,,0.00,Weather View 32 v70,2013-01-07 04:27:00,
2013-01-06 23:40:00,30.2,16.0,29.56,WNW,290,0.0,0.0,55,0.00,,,0.00,Weather View 32 v70,2013-01-07 04:40:00,